Wind_Speed
11 11 10 9 9 9 9 9 9 9 9 8 7 7 8 9 8 8 11 1 7 9 9 9 10 10 9 4 4 6 3 2 1 6 1 2 9 9 8 10 7 3 13 19 14
13 12 11 10 10 10 10 10 11 10 10 7 6 5 6 7 10 15 11 9 9 11 11 11 10 9 12 4 2 6 3 2 6 7 2 3 3 9 7 15 10 13 15 15 12
15 14 12 11 10 11 11 11 11 10 8 6 4 4 4 5 12 6 7 9 12 10 12 12 9 9 14 1 5 6 2 10 7 3 9 9 9 3 8 12 14 13 14 13 11
20 16 14 12 11 11 11 11 12 11 7 4 3 3 5 6 4 9 5 11 13 9 11 12 12 14 6 6 5 3 7 7 8 1 7 5 3 8 8 11 14 13 14 11 8
26 19 14 12 12 11 11 11 10 9 6 3 2 2 3 9 1 4 8 11 10 10 13 11 12 12 4 2 4 10 8 13 8 3 6 3 3 7 9 12 13 13 11 11 9
29 26 18 13 11 11 10 10 10 8 5 3 2 3 7 12 5 5 9 12 12 12 12 11 8 8 4 5 5 8 10 10 8 5 3 3 6 6 8 12 12 12 11 10 10
30 29 24 17 12 11 10 10 9 5 3 3 3 3 10 3 4 6 9 12 11 11 10 8 9 9 11 5 8 13 12 5 10 5 1 1 4 6 7 11 11 11 10 9 9
30 31 27 20 14 11 9 9 7 3 3 2 3 6 1 5 4 6 7 9 10 10 11 3 10 13 7 9 7 12 13 7 9 11 7 5 2 12 10 11 12 12 11 9 9
30 31 29 25 16 11 8 6 1 3 3 3 4 9 6 8 11 10 10 12 13 12 8 6 16 6 6 6 7 10 4 6 14 14 9 7 5 15 4 4 9 12 12 11 11
31 32 30 26 18 10 6 3 2 3 3 5 11 8 8 10 12 8 8 7 14 12 10 11 11 13 9 9 5 4 2 12 9 12 12 16 14 14 14 14 12 12 12 9 12
31 33 31 27 19 9 2 2 6 7 14 10 11 8 4 7 9 11 12 12 15 13 15 14 13 12 14 23 4 24 1 10 6 8 11 9 8 16 16 15 9 12 16 13 10
32 34 32 28 18 7 4 8 8 6 8 10 5 4 3 13 11 11 14 12 12 15 17 9 14 5 13 3 15 12 6 7 8 6 8 8 10 19 17 16 16 12 10 16 11
32 34 33 29 14 5 11 9 4 8 8 11 10 10 9 10 10 13 15 14 13 16 14 15 12 6 3 8 7 8 4 2 2 8 11 7 6 13 19 16 15 15 13 10 12
32 34 33 29 4 3 12 5 5 6 6 15 11 6 8 9 6 11 15 7 10 13 10 14 12 3 9 11 7 8 5 4 4 8 4 6 4 19 15 16 15 15 14 16 15
32 34 31 21 12 12 5 3 5 6 6 16 14 11 13 10 12 9 12 7 12 12 7 12 12 11 13 12 9 8 1 8 6 14 14 12 4 11 13 17 15 14 15 15 17
32 33 30 6 6 10 5 6 6 7 5 11 10 12 13 12 8 10 11 11 7 9 11 18 2 8 14 13 5 4 9 8 11 12 10 5 4 8 4 6 10 14 13 15 15
33 30 22 9 2 3 7 8 7 10 7 10 15 16 16 11 10 13 14 14 10 11 12 13 11 11 8 10 11 11 16 11 6 8 1 3 5 8 8 7 5 8 7 14 13
34 22 10 11 6 5 10 9 11 7 11 8 14 14 14 11 12 15 14 13 14 14 6 11 15 14 12 16 8 13 19 11 7 6 5 11 4 2 12 8 7 4 3 3 10
31 9 6 3 7 9 8 12 14 14 6 7 10 10 13 11 8 13 13 13 13 13 14 8 1 12 5 8 8 11 11 15 12 8 7 8 7 9 10 9 6 7 4 6 4
20 10 4 5 7 11 9 17 16 3 8 5 13 14 14 16 12 11 13 11 7 11 16 1 6 9 10 8 10 16 8 12 9 6 8 2 3 3 9 7 10 8 7 7 6
8 4 4 2 9 8 11 17 15 6 8 11 13 16 14 11 14 14 9 6 9 13 12 11 9 11 8 12 11 8 11 11 14 11 8 6 5 10 6 3 7 5 0 4 1
8 4 4 6 8 10 12 18 3 9 10 13 9 16 14 15 8 15 13 9 14 7 12 12 8 10 12 4 5 10 15 13 8 10 11 9 4 8 8 3 4 1 4 2 2
5 6 5 9 8 10 12 12 8 12 15 10 11 15 15 15 8 12 12 7 12 9 8 10 9 11 12 12 7 11 15 11 15 12 12 9 2 9 10 7 7 2 0 4 3
5 3 5 7 11 11 11 13 15 13 17 12 10 13 11 13 16 10 12 10 8 12 8 4 13 15 11 10 12 6 11 8 13 10 11 11 1 13 9 8 7 6 4 6 4
4 2 5 3 5 8 9 12 12 12 10 14 12 17 15 14 16 16 16 12 11 9 5 11 16 14 11 10 2 11 13 6 8 11 13 16 16 15 15 10 11 7 7 8 8
5 4 4 11 9 10 10 13 15 14 11 10 16 17 16 12 17 12 9 16 13 12 13 14 14 11 11 10 10 11 11 12 14 12 13 14 14 10 6 6 6 8 10 10 7
5 8 5 6 10 10 11 10 12 13 12 10 15 11 7 10 13 13 14 16 17 15 14 15 13 13 12 10 7 13 13 17 14 14 13 13 12 9 7 9 11 9 10 7 6
Wind_Direction
354 347 341 336 335 331 330 330 327 323 318 308 291 288 291 290 281 258 241 183 192 188 188 204 214 223 232 214 290 250 293 262 43 133 48 94 115 80 103 122 58 59 101 103 142
359 351 344 338 332 326 323 323 323 323 320 314 295 285 286 294 283 251 226 245 213 192 209 207 209 218 243 217 248 278 18 64 60 85 266 238 123 109 153 120 117 101 104 122 139
2 354 346 336 327 320 319 318 316 319 320 312 297 282 278 304 259 178 182 213 195 195 244 244 281 251 276 187 9 16 33 120 102 20 268 223 111 111 6 113 140 132 134 141 141
3 354 344 335 327 320 317 315 318 319 318 306 287 267 272 258 225 75 164 180 190 214 252 236 244 255 231 156 70 115 110 115 129 265 315 69 151 87 60 82 113 123 136 135 127
9 359 346 335 328 322 317 315 319 317 307 288 258 250 276 213 83 116 165 170 192 224 242 236 250 262 29 45 30 116 115 115 126 99 11 68 334 110 109 113 116 125 140 142 131
9 6 355 340 329 322 317 318 319 315 296 262 224 248 241 245 110 136 159 182 205 222 230 245 292 321 1 12 13 106 131 130 154 126 54 26 311 118 125 133 131 148 145 146 132
8 6 3 349 333 323 316 318 316 299 262 235 215 250 259 22 140 157 177 193 206 228 240 235 297 273 278 102 141 115 124 142 128 165 69 21 239 125 164 155 154 143 152 129 131
7 5 1 355 340 326 318 317 316 224 212 238 240 245 316 136 173 197 186 191 201 223 262 270 265 258 258 129 194 160 155 154 161 170 131 131 31 278 195 173 174 153 143 151 143
4 2 360 356 341 327 315 316 356 184 207 228 247 227 177 160 211 202 197 188 191 205 225 272 255 269 176 199 199 133 212 131 147 191 155 177 168 259 224 295 192 170 159 161 149
360 359 357 353 341 324 306 262 205 157 223 248 266 256 198 217 156 167 185 189 184 190 210 228 238 223 211 88 296 37 130 133 170 168 187 182 167 199 199 210 204 197 161 170 159
355 354 353 350 340 317 272 249 205 199 219 272 144 261 143 110 152 185 172 196 188 193 217 208 236 219 316 124 4 275 41 97 88 142 201 199 139 184 188 202 218 216 166 191 146
349 350 348 347 335 297 241 255 41 353 273 206 231 268 186 165 175 168 187 200 198 207 225 184 242 318 165 294 204 242 266 94 132 162 227 170 181 179 186 203 196 210 221 173 183
345 345 343 344 328 253 239 311 322 329 250 160 193 200 178 213 190 168 206 219 198 219 199 244 197 59 285 245 256 247 308 337 52 181 220 237 327 171 174 198 204 200 204 223 205
341 341 339 340 291 220 235 198 287 311 266 152 187 189 175 230 160 141 210 208 211 234 211 238 271 200 248 237 244 267 48 275 232 242 356 221 115 319 169 188 200 206 212 197 182
337 337 333 328 300 248 53 268 292 247 267 148 163 130 166 222 118 180 203 212 238 219 246 223 229 241 234 254 200 280 317 275 197 260 219 176 244 216 163 169 185 204 205 215 176
332 334 327 306 234 247 255 278 259 234 235 155 145 187 187 221 175 143 178 241 308 221 209 265 200 259 233 220 236 306 240 231 240 255 259 149 261 67 24 97 115 169 195 198 205
327 329 311 269 9 239 230 240 225 246 108 156 173 176 209 173 151 174 190 199 193 206 198 214 213 214 255 217 199 219 238 228 222 264 328 134 213 123 160 120 65 117 149 181 202
326 323 291 239 246 245 225 227 246 240 201 140 195 183 205 170 185 189 187 208 231 253 205 201 183 207 174 248 200 214 255 278 299 285 96 155 248 68 81 83 112 112 113 152 196
331 308 251 196 220 219 229 225 218 253 256 177 197 211 205 194 247 190 215 217 197 214 261 182 164 151 173 223 260 249 223 293 318 292 250 277 127 159 159 150 167 162 153 145 152
325 288 198 278 208 212 232 242 242 317 329 291 246 208 230 191 196 206 192 217 219 190 259 192 151 189 167 231 245 268 331 236 217 234 263 207 205 169 144 171 181 173 188 144 142
283 263 102 164 190 221 228 236 246 192 245 256 249 257 231 228 189 217 233 184 209 181 222 258 258 155 177 210 242 178 234 251 284 312 320 290 70 60 100 79 152 181 263 120 167
289 262 97 186 213 224 234 242 329 264 213 249 271 290 266 250 216 238 218 225 174 207 209 230 267 211 213 55 311 287 298 295 272 217 231 282 10 70 102 125 132 216 157 267 340
293 293 149 217 237 230 231 267 274 253 242 232 239 240 249 265 251 249 237 235 153 204 228 205 237 253 221 182 197 259 250 252 269 277 286 294 247 144 141 155 152 259 314 203 238
281 261 166 212 270 288 292 225 246 220 265 269 262 277 260 246 253 251 228 173 183 231 66 306 263 266 293 200 197 238 254 231 273 281 291 267 148 147 227 165 178 198 237 277 291
248 35 2 273 217 262 282 282 270 244 205 249 242 247 251 249 243 238 255 214 185 160 218 242 261 270 276 284 275 289 297 278 247 282 293 303 310 316 317 349 10 357 318 279 260
310 339 3 284 279 265 249 254 258 264 263 255 234 253 233 249 256 318 269 237 197 170 232 231 261 279 288 263 227 254 257 263 267 263 272 273 280 282 0 359 312 288 262 259 256
12 272 271 285 262 251 257 258 252 263 270 272 294 303 244 277 344 310 296 288 290 197 195 240 245 252 251 258 252 243 237 247 251 270 268 271 274 286 327 309 300 257 246 252 249
Height
800 798 796 794 792 790 788 786 785 783 781 780 779 778 777 775 774 774 768 764 765 766 767 764 764 760 756 751 753 751 780 787 783 792 784 758 761 757 757 764 764 766 772 777 788
800 798 796 793 791 789 787 786 784 782 780 779 777 777 776 775 774 767 763 763 764 765 766 761 757 754 747 748 748 753 778 780 777 785 787 770 762 759 761 765 775 775 779 786 789
800 797 795 793 790 788 786 784 782 780 779 777 777 776 775 774 771 752 759 762 764 764 763 758 753 749 745 740 750 754 776 775 785 789 778 764 761 754 768 768 770 779 781 784 787
800 797 794 791 789 787 785 783 781 779 777 776 775 775 774 776 768 755 759 762 763 764 762 758 752 750 747 761 746 772 767 777 785 788 774 768 758 762 763 765 764 772 778 782 786
799 795 792 790 787 785 783 781 779 778 776 775 774 774 774 767 752 759 760 762 764 764 759 753 750 742 752 750 753 768 773 773 787 787 778 766 775 767 770 765 769 775 779 781 782
799 794 790 787 785 783 781 779 778 776 775 775 774 773 773 763 756 760 761 763 762 760 755 752 744 740 743 748 753 754 766 774 779 788 784 781 781 769 770 767 773 776 777 780 783
799 794 789 786 783 781 779 777 776 775 775 774 773 774 766 755 756 759 760 760 759 757 751 749 747 743 743 752 747 753 773 779 779 787 787 784 794 785 768 767 773 773 775 779 784
799 794 789 785 782 780 778 776 774 774 774 774 773 775 753 757 757 759 758 758 759 758 753 751 749 743 742 740 747 756 770 788 778 775 781 789 815 789 767 768 772 771 776 780 784
798 793 788 784 780 778 776 775 773 773 773 773 773 768 751 756 755 753 755 755 756 756 755 754 746 755 740 759 763 762 787 774 777 773 782 788 814 791 772 779 772 770 773 775 780
797 792 788 783 778 776 774 774 773 773 773 774 770 767 749 746 746 750 753 752 753 753 754 752 744 744 740 789 821 775 770 761 778 764 764 776 787 781 777 776 771 767 770 774 777
796 791 786 781 776 774 773 774 774 770 766 749 744 742 741 743 750 750 752 749 748 751 760 749 753 752 753 762 804 792 761 756 756 754 759 768 782 775 771 769 773 763 768 770 775
795 790 785 779 775 773 772 764 757 760 753 741 743 742 740 743 747 746 749 751 752 761 748 752 760 737 738 744 758 760 752 755 754 750 758 756 761 757 764 765 768 766 765 767 774
793 788 783 777 772 771 768 760 761 759 754 741 738 737 740 740 739 744 744 742 751 756 749 754 737 732 743 746 756 747 752 750 755 749 746 751 775 755 755 759 757 758 763 760 766
791 786 780 776 774 765 762 761 761 760 759 746 743 735 736 733 742 734 738 740 744 752 747 749 730 746 749 752 747 756 738 744 750 759 813 744 826 802 749 756 757 755 755 759 764
789 784 778 774 771 763 760 761 760 758 775 735 731 727 726 735 734 740 736 738 749 750 747 753 748 751 758 748 739 747 739 742 746 747 743 743 756 770 739 751 750 751 750 752 759
786 781 774 771 769 762 762 761 759 770 768 739 727 737 739 732 732 735 740 735 730 742 744 740 728 735 738 733 735 734 744 741 737 738 759 735 751 766 767 748 738 736 743 747 750
781 776 772 769 759 762 762 759 769 768 719 736 737 730 734 736 737 742 748 751 753 767 760 747 743 733 730 745 736 742 745 761 773 764 766 738 752 742 739 733 733 736 739 741 748
775 769 765 764 763 763 761 761 775 729 722 710 718 725 737 724 731 738 744 749 736 734 736 755 765 738 728 735 741 745 737 755 785 762 752 741 760 745 722 725 730 736 737 741 741
771 763 761 760 761 762 756 765 749 729 711 721 722 733 734 724 726 732 737 735 725 728 746 742 746 722 725 725 731 740 751 723 744 733 750 738 733 725 724 732 736 735 740 743 744
773 761 752 759 759 759 756 756 727 715 721 720 733 726 735 728 737 732 732 719 723 719 714 726 749 729 728 729 729 736 722 752 746 779 781 746 750 750 742 739 733 736 738 740 744
772 754 755 757 758 753 756 740 726 716 724 731 728 722 720 717 721 726 724 716 712 716 716 719 731 739 730 742 737 741 748 742 735 739 763 769 758 721 730 729 734 734 738 738 743
766 753 752 755 757 743 742 731 743 723 719 724 722 719 717 712 717 723 723 713 702 710 731 720 724 741 736 720 719 726 733 730 748 758 743 747 752 717 724 728 732 737 741 740 742
767 751 749 751 752 738 731 729 728 731 724 724 727 719 711 717 728 715 711 698 703 714 723 716 737 748 739 728 728 741 730 729 727 724 748 761 752 727 727 733 734 740 737 742 744
771 752 742 746 736 741 733 732 737 724 726 718 723 715 719 724 712 721 715 703 705 711 723 717 727 734 747 767 743 752 737 734 737 749 742 740 741 744 732 733 732 736 739 742 744
765 752 755 743 741 739 737 737 735 734 725 720 729 728 726 731 723 721 714 705 709 725 720 723 741 728 723 722 731 739 736 734 745 746 758 744 742 732 728 729 733 735 739 744 745
774 769 757 753 749 752 752 747 742 731 728 731 732 722 719 730 721 728 712 709 715 712 724 717 740 732 738 724 732 743 736 735 735 736 740 740 743 724 723 729 739 740 741 743 744
780 777 773 757 750 747 740 736 738 730 728 729 728 727 732 726 720 717 712 705 698 707 719 725 730 738 749 729 736 749 734 730 730 727 731 747 731 720 729 733 735 735 737 740 741